Downstream station:
SHEF ID: ENWK1 CROOKED C NR ENGLEWOOD, KS
STATION TYPE:
Regulating: Stage = 6.50, Flow = 243
PRECIP STAGE RIV-FLOW BAT-LOAD
in ft cfs volt
Ccp-Rev Ccp-Rev Ccp-Rev Ccp-Rev
(US/Central)
12/30 00:00 0.00 2.42 3 12.83
12/30 01:00 0.00 2.42 3 12.77
12/30 02:00 0.00 2.41 3 12.77
12/30 03:00 0.00 2.41 3 12.71
12/30 04:00 0.00 2.41 3 12.71
12/30 05:00 0.00 2.41 3 12.65
12/30 06:00 0.00 2.41 3 12.65
12/30 07:00 0.00 2.41 3 12.60
12/30 08:00 0.00 2.41 3 12.54
12/30 09:00 0.00 2.42 3 13.94
12/30 10:00 0.00 2.42 3 14.35
12/30 11:00 0.00 2.42 3 14.65
12/30 12:00 0.00 2.41 3 14.12
12/30 13:00 0.00 2.40 3 14.24
12/30 14:00 0.00 2.41 3 14.35
12/30 15:00 0.00 2.42 3 14.24
12/30 16:00 0.00 2.44 4 14.30
12/30 17:00 0.00 2.44 4 13.94
12/30 18:00 0.00 2.43 3 13.42
12/30 19:00 0.00 2.43 3 13.07
12/30 20:00 0.00 2.43 3 13.00
12/30 21:00 0.00 2.43 3 13.00
12/30 22:00 0.00 2.44 4 12.95
12/30 23:00 ---- ---- ---- ----